Weather in Garachine

Panama     8°03′57″N   78°22′00″W
temp.,
°C
wind,
m/s
gust,
m/s
humid.,
%
clouds,
%
prec.,
mm/h
press.,
hPa
HPBL,
m
22 january, fri
fri2201:00+23ne139385 0.1 1010191
04:00+23nne249293 0.1 1009200
07:00+23ene129497 0.4 1010125
10:00+26nne1384100 0.4 1012470
13:00+28nnw236791 0.9 1010840
16:00+26nnw1287100 1.9 1008331
19:00+23ese1193100 2.5 101043
22:00+23e119465 0.0 101263
23 january, sat
sat2301:00+22ese119661 0.4 101148
04:00+22ese129792 1.0 101054
07:00+22e129796 1.2 101269
10:00+27ne237891 0.2 1012624
13:00+29nnw236471 0.8 10101060
16:00+27nnw248081 1.6 1008709
19:00+24ne129490 2.2 1009148
22:00+23ne139596 0.2 1011143
24 january, sun
sun2401:00+23ene129692 0.3 1010133
04:00+22ene129682 0.1 1009132
07:00+22e119684 0.2 1010129
10:00+27ne257659 0.2 1011780
13:00+29n236778 0.6 1009965
16:00+27nnw238154 0.9 1006420
19:00+24ene019159 1.5 100848
22:00+23nne2495100 0.1 1010153
25 january, mon
mon2501:00+23ene139791 0.3 1008144
04:00+23ene129791 0.5 1008125
07:00+23ene119690 0.9 1009109
10:00+25ne129188 1.1 1010290
13:00+28wnw118489 4.9 1008546
16:00+27wsw1287100 4.8 1006393
19:00+24ssw119396 5.6 100846
22:00+23ne129538 0.2 1009101
26 january, tue
tue2601:00+23nne129758 1.1 1009121
04:00+22e129798 1.6 1008115
07:00+22ese129899 1.7 100991
10:00+27ene1278100 0.1 1011576
13:00+27wnw2283100 1.8 1009412
16:00+26wsw1391100 5.3 1007367
19:00+23s119597 5.5 100849
22:00+23sse119366 0.1 101035